Tracking 18840 objects as of 18-November-2017
HD Live streaming from Space Station
objects crossing your sky now

COSMOS 2504

Track COSMOS 2504 now!
10-day predictions
COSMOS 2504 is classified as:


NORAD ID: 40555
Int'l Code: 2015-020D
Perigee: 632.1 km
Apogee: 1,510.4 km
Inclination: 82.5 °
Period: 106.5 minutes
Semi major axis: 7442 km
RCS: Unknown
Launch date: March 31, 2015
Source: Commonwealth of Independent States (former USSR) (CIS)
Launch site: PLESETSK MISSILE AND SPACE COMPLEX (PKMTR)

COSMOS 2504 is a secretive Russian military satellite. Russian officials have not disclosed information on its mission.
aabbcc
Your satellite tracking list
Your tracking list is empty




NASA's NSSDC Master Catalog

Two Line Element Set (TLE):
1 40555U 15020D   17321.72635426 +.00002803 +00000-0 +13866-2 0  9995
2 40555 082.5163 119.6709 0590066 108.4215 258.1988 13.52210785124840
Source of the keplerian elements: AFSPC